[TLELIST] Archives

 

Current TLEs

November 27th 2007 PST

HST 1 20580U 90037B 07329.12818660 .00000416 00000-0 19466-4 0 135 2 20580 028.4683 220.5911 0003423 008.0191 352.0452 15.00307026764157 ISS (ZARYA) 1 25544U 98067A 07330.39121380 .00021862 00000-0 13704-3 0 4105 2 25544 051.6416 347.6118 0001149 189.4365 307.9569 15.76721363516367 CXO 1 25867U 99040B 07328.66666667 .00000424 00000-0 10000-3 0 1388 2 25867 062.7529 085.6697 6470305 281.6091 318.1111 00.37798416 2850 ____________________________________________________________________ These 2-Line ...Continue Reading

Current TLEs

November 26th 2007 PST

HST 1 20580U 90037B 07329.12818660 .00000416 00000-0 19466-4 0 135 2 20580 028.4683 220.5911 0003423 008.0191 352.0452 15.00307026764157 ISS (ZARYA) 1 25544U 98067A 07329.37534127 .00020233 00000-0 12742-3 0 4054 2 25544 051.6417 352.8519 0001075 192.5384 294.7466 15.76673184516204 CXO 1 25867U 99040B 07328.66666667 .00000424 00000-0 10000-3 0 1388 2 25867 062.7529 085.6697 6470305 281.6091 318.1111 00.37798416 2850 ____________________________________________________________________ These 2-Line ...Continue Reading

Current TLEs

November 25th 2007 PST

HST 1 20580U 90037B 07327.86426195 .00000407 00000-0 18724-4 0 127 2 20580 028.4688 228.8334 0003372 352.9850 007.0690 15.00306323763966 ISS (ZARYA) 1 25544U 98067A 07328.42561253 .00022867 00000-0 14368-3 0 4005 2 25544 051.6428 357.7452 0001229 186.3733 306.6544 15.76635895516056 CXO 1 25867U 99040B 07328.66666667 .00000424 00000-0 10000-3 0 1388 2 25867 062.7529 085.6697 6470305 281.6091 318.1111 00.37798416 2850 ____________________________________________________________________ These 2-Line ...Continue Reading

Current TLEs

November 24th 2007 PST

HST 1 20580U 90037B 07325.93511271 +.00000385 +00000-0 +17001-4 0 00361 2 20580 028.4689 241.4122 0003415 330.4875 029.5518 15.00305230763671 ISS (ZARYA) 1 25544U 98067A 07327.47698257 .00022878 00000-0 14403-3 0 3948 2 25544 051.6428 002.6375 0001332 187.2075 317.9366 15.76591285515904 CXO 1 25867U 99040B 07326.29166667 .00000541 00000-0 10000-3 0 1379 2 25867 062.7309 085.7574 6470214 281.6283 354.7941 00.37808848 2840 ____________________________________________________________________ These 2-Line ...Continue Reading

Current TLEs

November 23rd 2007 PST

HST 1 20580U 90037B 07326.20120237 .00000398 00000-0 18047-4 0 118 2 20580 028.4689 239.6763 0003389 334.6032 025.4392 15.00305470763718 ISS (ZARYA) 1 25544U 98067A 07326.19601505 .00022800 00000-0 14394-3 0 3883 2 25544 051.6430 009.2415 0001091 191.5095 238.4308 15.76530389515706 CXO 1 25867U 99040B 07326.29166667 .00000541 00000-0 10000-3 0 1379 2 25867 062.7309 085.7574 6470214 281.6283 354.7941 00.37808848 2840 ____________________________________________________________________ These 2-Line ...Continue Reading

Current TLEs

November 22nd 2007 PST

HST 1 20580U 90037B 07324.87075407 .00000378 00000-0 16445-4 0 104 2 20580 028.4689 248.3520 0003446 317.8622 042.1705 15.00304694763517 ISS (ZARYA) 1 25544U 98067A 07324.74380907 .00018238 00000-0 11652-3 0 3808 2 25544 051.6430 016.7219 0001447 181.8409 280.7304 15.76428753515478 CXO 1 25867U 99040B 07323.66666667 .00000612 00000-0 10000-3 0 1360 2 25867 062.7092 085.8435 6466549 281.6177 357.5401 00.37807662 2838 ____________________________________________________________________ These 2-Line ...Continue Reading

Current TLEs

November 21st 2007 PST

HST 1 20580U 90037B 07323.27421742 +.00000401 +00000-0 +18258-4 0 00105 2 20580 028.4692 258.7671 0003234 303.4763 056.5528 15.00304335763272 ISS (ZARYA) 1 25544U 98067A 07324.36367757 .00015803 00000-0 10162-3 0 3770 2 25544 051.6433 018.6822 0001551 179.7900 284.0267 15.76408852515417 CXO 1 25867U 99040B 07323.66666667 .00000612 00000-0 10000-3 0 1360 2 25867 062.7092 085.8435 6466549 281.6177 357.5401 00.37807662 2838 ____________________________________________________________________ These 2-Line ...Continue Reading

Current TLEs

November 20th 2007 PST

HST 1 20580U 90037B 07323.34073964 .00000393 00000-0 17638-4 0 91 2 20580 028.4692 258.3294 0003321 305.5525 054.4775 15.00304256763289 ISS (ZARYA) 1 25544U 98067A 07323.40956378 .00020575 00000-0 13114-3 0 3735 2 25544 051.6416 023.5959 0001566 170.2305 275.3285 15.76386168515266 CXO 1 25867U 99040B 07323.66666667 .00000612 00000-0 10000-3 0 1360 2 25867 062.7092 085.8435 6466549 281.6177 357.5401 00.37807662 2838 ____________________________________________________________________ These 2-Line ...Continue Reading

Current TLEs

November 19th 2007 PST

HST 1 20580U 90037B 07322.01029179 .00000383 00000-0 16844-4 0 78 2 20580 028.4695 267.0105 0003341 287.1558 072.8700 15.00303637763085 ISS (ZARYA) 1 25544U 98067A 07322.39853913 .00021536 00000-0 13729-3 0 3698 2 25544 051.6409 028.8063 0001860 173.1576 291.0603 15.76347226515105 CXO 1 25867U 99040B 07321.04166667 .00000585 00000-0 10000-3 0 1353 2 25867 062.6932 085.9049 6461349 281.6231 000.2475 00.37805582 2827 ____________________________________________________________________ These 2-Line ...Continue Reading

Current TLEs

November 18th 2007 PST

HST 1 20580U 90037B 07320.21418696 .00000388 00000-0 17238-4 0 55 2 20580 028.4691 278.7288 0003416 269.4471 090.5726 15.00302767762810 ISS (ZARYA) 1 25544U 98067A 07321.38284444 .00022325 00000-0 14242-3 0 3624 2 25544 051.6417 034.0389 0001669 171.8465 284.6510 15.76305440514941 CXO 1 25867U 99040B 07321.04166667 .00000585 00000-0 10000-3 0 1353 2 25867 062.6932 085.9049 6461349 281.6231 000.2475 00.37805582 2827 ____________________________________________________________________ These 2-Line ...Continue Reading
  • This mailing list is a public mailing list - anyone may join or leave, at any time.
  • This mailing list is announce-only.

International Space Station (ISS) / Hubble Space Telescope (HST) / Chandra X-Ray Observatory Orbital Data via EMAIL

Privacy Policy:

Private list